This demonstration page uses our WeatherBlox Daily Observations layout. Learn more.

Left ArrowRight Arrow

34.74481, -87.66753

Hourly Observations for February 18, 2021

Temp ( °F °C ) Dew Point ( °F °C ) Humidity (%) Winds ( mph kmh ) Pressure ( in mb ) Visibility ( mi km ) Precip ( " mm )
12:04 am 00:04 Cloudy with Haze 33 0.6 28 -2.2 82 82 E 5 7 30.09 1019 4 6 0.00 0.00
12:53 am 00:53 Cloudy with Haze 34 1.1 29 -1.7 82 82 Calm 30.07 1018 4 6 0.00 0.00
1:53 am 01:53 Cloudy with Haze 34 1.1 29 -1.7 82 82 Calm 30.08 1019 5 8 0.00 0.00
2:53 am 02:53 Cloudy 33 0.6 27 -2.8 78 78 VRB 6 9 30.06 1018 7 11 0.00 0.00
3:53 am 03:53 Cloudy with Haze 33 0.6 27 -2.8 78 78 E 3 6 30.05 1018 6 10 0.00 0.00
4:45 am 04:45 Cloudy with Haze 33 0.6 28 -2.2 82 82 NNE 7 11 30.03 1017 3 4 0.00 0.00
4:53 am 04:53 Cloudy with Haze 33 0.6 28 -2.2 82 82 N 9 15 30.03 1017 3 4 0.00 0.00
5:53 am 05:53 Cloudy with Haze 33 0.6 28 -2.2 82 82 NW 5 7 30.09 1019 2 3 0.00 0.00
6:06 am 06:06 Cloudy with Haze 33 0.6 28 -2.2 82 82 NNW 6 9 30.12 1020 2 3 0.00 0.00
6:49 am 06:49 Cloudy with Haze 34 1 28 -2 81 81 NW 6 9 30.15 1021 2 2 0.00 0.00
6:53 am 06:53 Cloudy with Haze 33 0.6 28 -2.2 82 82 NW 7 11 30.13 1020 2 2 0.00 0.00
7:15 am 07:15 Cloudy with Haze 33 0.6 28 -2.2 82 82 NNW 7 11 30.16 1021 1 2 0.00 0.00
7:27 am 07:27 Cloudy with Haze 33 0.6 28 -2.2 82 82 NNW 6 9 30.17 1022 1 2 0.00 0.00
7:53 am 07:53 Cloudy with Haze 33 0.6 28 -2.2 82 82 NNW 5 7 30.16 1021 1 2 0.00 0.00
8:53 am 08:53 Cloudy with Haze 33 0.6 28 -2.2 82 82 NW 8 13 30.20 1023 2 3 0.00 0.00
9:02 am 09:02 Cloudy with Haze 33 0.6 27 -2.8 78 78 NNW 9 15 30.22 1023 3 4 0.00 0.00
9:51 am 09:51 Cloudy with Haze 34 1 27 -3 75 75 NW 6 9 30.24 1024 3 5 0.00 0.00
9:53 am 09:53 Cloudy with Haze 33 0.6 27 -2.8 78 78 NNW 7 11 30.22 1023 3 5 0.00 0.00
10:10 am 10:10 Cloudy with Haze 34 1.1 28 -2.2 79 79 NNW 7 11 30.22 1023 3 4 0.00 0.00
10:27 am 10:27 Cloudy with Haze 34 1.1 27 -2.8 76 76 NNW 7 11 30.19 1022 4 6 0.00 0.00
10:53 am 10:53 Cloudy with Haze 35 1.7 28 -2.2 76 76 NNW 5 7 30.17 1022 5 8 0.00 0.00
11:53 am 11:53 Cloudy 36 2.2 29 -1.7 76 76 Calm 30.17 1022 8 13 0.00 0.00
12:53 pm 12:53 Cloudy with Light Rain 37 2.8 29 -1.7 73 73 NNW 6 9 30.16 1022 6 10 0.00 0.00
1:23 pm 13:23 Cloudy 37 2.8 29 -1.7 73 73 NNW 6 9 30.17 1022 7 11 0.01 0.25
1:53 pm 13:53 Cloudy 36 2.2 29 -1.7 76 76 NNW 8 13 30.16 1021 7 11 0.01 0.25
2:02 pm 14:02 Cloudy 36 2.2 28 -2.2 73 73 N 9 15 30.17 1022 7 11 0.00 0.00
2:16 pm 14:16 Cloudy 37 2.8 29 -1.7 73 73 NNW 7 11 30.17 1022 8 13 0.00 0.00
2:53 pm 14:53 Cloudy 36 2.2 28 -2.2 73 73 NNW 9 15 30.17 1022 7 11 0.00 0.00
3:53 pm 15:53 Cloudy 35 1.7 27 -2.8 72 72 NNW 7 11 30.20 1023 8 13 0.00 0.00
4:39 pm 16:39 Cloudy with Haze 34 1.1 25 -3.9 70 70 NNW 12 19 30.23 1024 6 10 0.00 0.00
4:53 pm 16:53 Cloudy with Haze 34 1.1 25 -3.9 70 70 N 7 11 30.21 1023 5 8 0.00 0.00
5:28 pm 17:28 Cloudy with Haze 33 0.6 25 -3.9 72 72 NNW 8 13 30.26 1025 6 10 0.00 0.00
5:53 pm 17:53 Cloudy 33 0.6 25 -3.9 72 72 NNW 9 15 30.24 1024 9 14 0.00 0.00
6:53 pm 18:53 Cloudy 33 0.6 25 -3.9 72 72 NNW 7 11 30.26 1025 8 13 0.00 0.00
7:04 pm 19:04 Cloudy 33 0.6 25 -3.9 72 72 VRB 6 9 30.27 1025 8 13 0.00 0.00
7:53 pm 19:53 Cloudy 33 0.6 24 -4.4 70 70 N 7 11 30.26 1025 10 16 0.00 0.00
8:53 pm 20:53 Cloudy 33 0.6 23 -5 66 66 N 7 11 30.26 1025 10 16 0.00 0.00
9:53 pm 21:53 Cloudy 32 0 23 -5 69 69 N 7 11 30.28 1026 10 16 0.00 0.00
10:53 pm 22:53 Cloudy 32 0 22 -5.6 66 66 N 8 13 30.29 1026 10 16 0.00 0.00
11:53 pm 23:53 Mostly Cloudy 30 -1.1 20 -6.7 66 66 N 12 19 30.30 1026 10 16 0.00 0.00

Powered by AerisWeather